Вернуться в каталог

ICEYE-X78

АктивенНаукаSSO
NORAD 68995·PAYLOAD·🇸🇬 Singapore

Запущен May 3, 2026 с Vandenberg Space Force Base

Loading…

Ближайшие Пролёты (ближайшие 24 часа)

TLE

СвежийSource: Space-Track

Эпоха: Sep 14, 2026, 22:52 UTC

1 68995U 26100R   26257.95330887  .00000575  00000-0  62294-4 0  9995
2 68995  97.7239 153.6910 0002520 152.2005 207.9349 14.91897065 20089

Отслеживайте ICEYE-X78 в реальном времени с AllMySat

Download on the App Store